This demonstration page uses our WeatherBlox Daily Observations layout. Learn more.

Left ArrowRight Arrow

44.89941, -97.11507

Hourly Observations for April 20, 2019

Temp ( °F °C ) Dew Point ( °F °C ) Humidity (%) Winds ( mph kmh ) Pressure ( in mb ) Visibility ( mi km ) Precip ( " mm )
12:53 am 00:53 Clear 46 7.8 36 2.2 68 68 SSE 15 24 29.82 1010 10 16 0.00 0.00
1:53 am 01:53 Clear 46 7.8 35 1.7 66 66 S 14 22 29.80 1009 10 16 0.00 0.00
2:53 am 02:53 Clear 44 6.7 35 1.7 71 71 SSE 10 17 29.79 1009 10 16 0.00 0.00
3:53 am 03:53 Clear 44 6.7 35 1.7 71 71 SSE 13 20 29.77 1008 10 16 0.00 0.00
4:53 am 04:53 Clear 43 6.1 34 1.1 71 71 SSE 13 20 29.76 1008 10 16 0.00 0.00
5:53 am 05:53 Clear 42 5.6 34 1.1 73 73 SSE 13 20 29.75 1008 10 16 0.00 0.00
6:53 am 06:53 Sunny 42 5.6 35 1.7 76 76 SSE 12 19 29.75 1008 10 16 0.00 0.00
7:53 am 07:53 Sunny 45 7.2 36 2.2 71 71 SSE 14 22 29.75 1008 10 16 0.00 0.00
8:53 am 08:53 Sunny 50 10 38 3.3 63 63 S 15 24 29.75 1007 10 16 0.00 0.00
9:53 am 09:53 Sunny 56 13.3 41 5 57 57 SSE 10 17 29.74 1007 10 16 0.00 0.00
10:53 am 10:53 Sunny 61 16.1 43 6.1 52 52 SSW 7 11 29.73 1007 10 16 0.00 0.00
11:53 am 11:53 Sunny 67 19.4 45 7.2 45 45 S 10 17 29.72 1006 10 16 0.00 0.00
12:53 pm 12:53 Sunny 71 21.7 48 8.9 44 44 SSW 10 17 29.69 1005 10 16 0.00 0.00
1:53 pm 13:53 Sunny 76 24.4 48 8.9 37 37 S 10 17 29.66 1005 10 16 0.00 0.00
2:53 pm 14:53 Sunny 78 25.6 49 9.4 36 36 SSW 14 22 29.65 1004 10 16 0.00 0.00
3:53 pm 15:53 Sunny 79 26.1 48 8.9 34 34 SSW 13 20 29.63 1004 10 16 0.00 0.00
4:53 pm 16:53 Sunny 78 25.6 46 7.8 32 32 SSW 15 24 29.61 1003 10 16 0.00 0.00
5:53 pm 17:53 Sunny 79 26.1 44 6.7 29 29 S 13 20 29.60 1002 10 16 0.00 0.00
6:53 pm 18:53 Sunny 72 22.2 48 8.9 43 43 S 7 11 29.60 1003 10 16 0.00 0.00
7:53 pm 19:53 Sunny 69 20.6 47 8.3 45 45 SSE 7 11 29.61 1003 10 16 0.00 0.00
8:53 pm 20:53 Clear 69 20.6 47 8.3 45 45 E 5 7 29.61 1003 10 16 0.00 0.00
9:53 pm 21:53 Clear 61 16.1 53 11.7 75 75 NE 14 22 29.65 1004 10 16 0.00 0.00
10:53 pm 22:53 Clear 57 13.9 51 10.6 81 81 NNE 13 20 29.65 1004 10 16 0.00 0.00
11:53 pm 23:53 Mostly Clear 55 12.8 49 9.4 80 80 NE 13 20 29.63 1004 10 16 0.00 0.00

Powered by AerisWeather